GW0699 Weather Reports


time (UTC)temp
C
wind
direction
speed
KPH
gust
KPH
rain 1hr
cm
rain 24hr
cm
rain mn
cm
humidity
%
barometer
mb
20260503223004 30 332 8.0 0.0 0.00 0.00 0.00 32 1007.0
20260503221607 29 311 9.7 0.0 0.00 0.00 0.00 34 1007.1
20260503220019 28 347 11.3 0.0 0.00 0.00 0.00 37 1007.4
20260503214551 28 330 11.3 0.0 0.00 0.00 0.00 36 1007.6
20260503213030 28 334 9.7 0.0 0.00 0.00 0.00 40 1007.7
20260503211501 28 11 9.7 0.0 0.00 0.00 0.00 38 1008.0
20260503210018 28 333 8.0 0.0 0.00 0.00 0.00 41 1008.2
20260503204540 27 317 9.7 0.0 0.00 0.00 0.00 47 1008.3
20260503203039 27 289 11.3 0.0 0.00 0.00 0.00 51 1008.6
20260503201511 26 338 8.0 0.0 0.00 0.00 0.00 50 1008.7
20260503200039 25 306 9.7 0.0 0.00 0.00 0.00 52 1009.0
20260503194514 25 355 11.3 0.0 0.00 0.00 0.00 53 1009.2
20260503193049 24 311 11.3 0.0 0.00 0.00 0.00 52 1009.3
20260503191603 23 342 11.3 0.0 0.00 0.00 0.00 55 1009.6
20260503190017 23 327 11.3 0.0 0.00 0.00 0.00 57 1009.7
20260503184558 23 331 9.7 0.0 0.00 0.00 0.00 57 1009.9
20260503183050 22 348 11.3 0.0 0.00 0.00 0.00 59 1009.9
20260503181545 22 19 12.9 0.0 0.00 0.00 0.00 58 1009.9
20260503180042 22 321 11.3 0.0 0.00 0.00 0.00 57 1010.0
20260503174604 21 315 9.7 0.0 0.00 0.00 0.00 57 1010.2
20260503173027 20 355 11.3 0.0 0.00 0.00 0.00 57 1010.3
20260503171544 20 341 9.7 0.0 0.00 0.00 0.00 57 1010.4
20260503160106 16 15 9.7 0.0 0.00 0.00 0.00 72 1010.6
20260503081540 15 351 4.8 0.0 0.00 0.00 0.00 74 1011.1
20260503071533 15 28 6.4 0.0 0.00 0.00 0.00 78 1011.3
20260503054602 17 360 8.0 0.0 0.00 0.00 0.00 72 1011.3
20260503053038 17 5 8.0 0.0 0.00 0.00 0.00 71 1011.4
20260503051548 18 338 8.0 0.0 0.00 0.00 0.00 71 1011.3
20260503050052 18 360 8.0 0.0 0.00 0.00 0.00 69 1011.3
20260503044529 17 350 3.2 0.0 0.00 0.00 0.00 74 1011.3
20260503043043 18 5 3.2 0.0 0.00 0.00 0.00 73 1011.1
20260503041543 17 18 1.6 0.0 0.00 0.00 0.00 73 1011.0
20260503040050 17 24 3.2 0.0 0.00 0.00 0.00 73 1010.8
20260503034526 18 5 0.0 0.0 0.00 0.00 0.00 70 1010.3
20260503033059 20 44 1.6 0.0 0.00 0.00 0.00 68 1010.0
20260503031508 21 13 3.2 0.0 0.00 0.00 0.00 66 1009.6
20260503030024 21 25 4.8 0.0 0.00 0.00 0.00 66 1009.2
20260503024536 21 336 8.0 0.0 0.00 0.00 0.00 64 1009.1
20260503023008 22 309 8.0 0.0 0.00 0.00 0.00 62 1009.1
20260503021533 22 314 8.0 0.0 0.00 0.00 0.00 58 1009.2
20260503020012 23 328 8.0 0.0 0.00 0.00 0.00 55 1009.2
20260503014553 23 342 8.0 0.0 0.00 0.00 0.00 57 1009.2
20260503013044 23 345 11.3 0.0 0.00 0.00 0.00 55 1009.2
20260503011510 23 334 11.3 0.0 0.00 0.00 0.00 56 1009.2
20260503010035 23 309 9.7 0.0 0.00 0.00 0.00 58 1009.2
20260503004548 23 309 8.0 0.0 0.00 0.00 0.00 58 1009.4
20260503003002 23 336 9.7 0.0 0.00 0.00 0.00 59 1009.4
20260503001533 23 360 8.0 0.0 0.00 0.00 0.00 57 1009.3
20260503000051 23 337 11.3 0.0 0.00 0.00 0.00 58 1009.5
20260502234501 23 337 12.9 0.0 0.00 0.00 0.00 57 1009.6
20260502233021 23 326 11.3 0.0 0.00 0.00 0.00 54 1009.9
20260502231546 23 317 9.7 0.0 0.00 0.00 0.00 55 1010.1
20260502230105 23 11 9.7 0.0 0.00 0.00 0.00 55 1010.3
20260502224541 22 266 8.0 0.0 0.00 0.00 0.00 56 1010.6